[[{"header":{"parameterUnit":"m.s-1","parameterCategory":1,"la1":30.2991,"la2":30.254,"lo1":-89.0895,"lo2":-89.0444,"dy":0.0017,"dx":0.0017,"nx":28,"ny":28,"refTime":"2024-06-30T09:00:00:Z","depth":0,"parameterNumber":2,"parameterNumberName":"U-component_of_WINDS"},"data":[0,0,0,0,0,0,0,0,0,0,0,0,0,0,0,0,0,0,0,0,0,0,0,0,0,0,0,0,0,0,0,0,0,0,0,0,0,0,0,0,0,0,0,0,0,0,0,0,0,0,0,0,0,0,0,0,0,0,0.655,0.655,0,0.6527,0.6527,0.6527,0.6451,0.6449,0.6448,0.6446,0.6434,0.6435,0.6436,0,0,0,0,0,0,0,0,0,0,0,0,0,0.6534,0.6535,0.655,0.655,0.655,0.6527,0.6527,0.6527,0.6451,0.6449,0.6447,0.6445,0.6433,0.6435,0.6436,0,0,0,0,0,0,0,0,0,0,0,0,0,0.653,0.6535,0.655,0.6509,0.6505,0.6527,0.6527,0.6527,0.6452,0.6449,0.6447,0.6444,0.6433,0.6435,0.6436,0.65,0,0,0.6442,0.6443,0,0,0,0,0,0,0,0,0.653,0.653,0.6515,0.6512,0.6507,0.6489,0.6517,0.6518,0.6452,0.6472,0.6446,0.6443,0.6455,0.6455,0.6457,0.65,0.6499,0.6442,0.6444,0.6444,0.6445,0,0,0,0,0,0,0,0.6531,0.6531,0.6541,0.6515,0.651,0.6494,0.649,0.6517,0.6479,0.647,0.6465,0.6463,0.6452,0.6455,0.6456,0.6499,0.6442,0.6444,0.6445,0.6446,0.6591,0.6593,0,0,0,0,0,0,0.6536,0.6532,0.6542,0.6541,0.6512,0.6496,0.6492,0.6498,0.6478,0.6473,0.6465,0.6459,0.6453,0.6454,0.6455,0.6529,0.6444,0.6446,0.6447,0.6588,0.6591,0.6594,0,0,0,0,0,0,0.6536,0.6537,0.6543,0.6535,0.6534,0.6499,0.6506,0.6499,0.6501,0.6474,0.6468,0.6474,0.6451,0.6452,0.6488,0.6527,0.6447,0.6449,0.6585,0.6589,0.6593,0.6677,0,0,0,0,0,0,0.6535,0.6538,0.6561,0.6536,0.6535,0.6576,0.6508,0.65,0.6504,0.6496,0.6481,0.6476,0.6449,0.6486,0.649,0.6528,0.645,0.6582,0.6587,0.6592,0.667,0.6683,0.6694,0,0,0,0,0,0.6535,0.6588,0.6562,0.6564,0.6562,0.6578,0.6578,0.6542,0.6507,0.6531,0.6512,0.6477,0.652,0.649,0.6495,0.6534,0.6579,0.6585,0.6591,0.6665,0.6681,0.6693,0,0,0,0,0,0,0.6625,0.6585,0.6556,0.6602,0.6593,0.6565,0.6595,0.656,0.6565,0.6558,0.6516,0.6514,0.6556,0.6547,0.6514,0.6593,0.6544,0.6551,0.6598,0.6613,0.6624,0.6628,0.6452,0,0,0,0,0,0.6649,0.6662,0.6627,0.6671,0.6667,0.6631,0.6637,0.6609,0.6601,0.6598,0.6582,0.6578,0.659,0.66,0.661,0.6666,0.6663,0.6695,0.6706,0.6716,0.6725,0.6753,0.6768,0.6614,0.6614,0.6614,0,0,0.6702,0.668,0.6693,0.6688,0.6679,0.6695,0.663,0.6651,0.6664,0.6603,0.6635,0.6622,0.6614,0.666,0.668,0.6655,0.6765,0.6724,0.6732,0.6736,0.6761,0.6776,0.6789,0.6618,0.6618,0.6617,0,0,0.6806,0.679,0.6825,0.6814,0.6798,0.6772,0.678,0.6755,0.6744,0.6774,0.6727,0.6742,0.6764,0.676,0.6761,0.6855,0.6823,0.6859,0.6924,0.6952,0.6964,0.6974,0.7011,0.7024,0.6866,0.6867,0.6867,0,0.6875,0.6896,0.6848,0.6871,0.6871,0.6808,0.6844,0.6837,0.6827,0.6829,0.6799,0.6822,0.6813,0.6857,0.6879,0.688,0.689,0.6865,0.6965,0.6975,0.6985,0.7019,0.7032,0.6871,0.6871,0.687,0.687,0,0.6982,0.6996,0.7026,0.7012,0.7014,0.7044,0.7002,0.701,0.6979,0.6957,0.6988,0.6972,0.6977,0.6984,0.6957,0.7023,0.7008,0.6972,0.6923,0.7005,0.7036,0.7049,0.6878,0.6877,0.6875,0.6874,0,0,0.7152,0.7104,0.7117,0.7109,0.7082,0.7094,0.7118,0.7118,0.7127,0.7119,0.7142,0.7157,0.7122,0.7123,0.7093,0.7117,0.7194,0.7078,0.7077,0.7103,0.7268,0.7299,0.7315,0.7169,0.7171,0.7173,0.727,0,0.7254,0.7293,0.7247,0.7297,0.731,0.7246,0.7268,0.7255,0.7233,0.7242,0.7218,0.7231,0.7182,0.7182,0.7202,0.7181,0.7228,0.7172,0.7194,0.7195,0.7204,0.7331,0.7366,0.7458,0.7281,0.7283,0.7285,0,0.7381,0.7374,0.7423,0.7389,0.7393,0.7414,0.7408,0.7416,0.7399,0.7381,0.7377,0.7339,0.7362,0.7308,0.7341,0.7304,0.7309,0.7299,0.7301,0.7308,0.725,0.7345,0.7487,0.7503,0.7303,0.7302,0.73,0,0.7504,0.7506,0.7536,0.753,0.7491,0.7506,0.7491,0.747,0.7472,0.7467,0.7468,0.7466,0.7468,0.7468,0.7431,0.7394,0.7469,0.7411,0.7458,0.7459,0.7483,0.7483,0.7632,0.7476,0.7476,0.7476,0.7476,0,0.7627,0.7661,0.759,0.761,0.7645,0.759,0.7627,0.7605,0.7586,0.7601,0.7545,0.7561,0.7507,0.7517,0.7488,0.752,0.752,0.7509,0.7502,0.7517,0.7519,0.7525,0.752,0.7479,0.7479,0.7478,0.7477,0,0.7775,0.7728,0.7757,0.7713,0.7703,0.7731,0.7695,0.7712,0.7681,0.7701,0.7702,0.7657,0.7665,0.7625,0.7628,0.7607,0.7657,0.7636,0.7663,0.7659,0.7709,0.7706,0.7872,0.7891,0.7718,0.772,0.7721,0,0.786,0.7883,0.784,0.7843,0.7829,0.7836,0.7835,0.778,0.7782,0.776,0.778,0.7782,0.7782,0.7798,0.7767,0.7768,0.775,0.7807,0.7751,0.7765,0.7756,0.7758,0.7761,0.7822,0.7825,0.7826,0.7828,0,0.8016,0.799,0.7989,0.7979,0.7977,0.7968,0.7955,0.7962,0.7902,0.7906,0.7911,0.791,0.7908,0.7913,0.7906,0.7892,0.7852,0.7843,0.7855,0.7875,0.7891,0.7887,0.7701,0.7843,0.7841,0.784,0.7839,0.7839,0.8138,0.8156,0.8126,0.8126,0.8108,0.8096,0.8108,0.8076,0.8078,0.8071,0.8037,0.8048,0.8026,0.8011,0.8001,0.801,0.7983,0.7999,0.8005,0.8011,0.8021,0.7883,0.8008,0.8007,0.8007,0.8006,0.8006,0,0.8296,0.8271,0.8271,0.8251,0.8251,0.8203,0.8184,0.8189,0.8198,0.8178,0.8176,0.8181,0.8182,0.8148,0.8145,0.8159,0.814,0.8161,0.8163,0.8161,0.8044,0.8036,0.8176,0.8176,0.8176,0.8176,0.8176,0.8176,0.8378,0.8405,0.8374,0.839,0.8366,0.8373,0.8367,0.8355,0.8338,0.8345,0.8344,0.8318,0.8293,0.8287,0.8286,0.8275,0.828,0.8308,0.8292,0.8185,0.8169,0.8154,0.8146,0.8308,0.8308,0.8409,0.841,0.8411]},{"header":{"parameterUnit":"m.s-1","parameterCategory":1,"la1":30.2991,"la2":30.254,"lo1":-89.0895,"lo2":-89.0444,"dy":0.0017,"dx":0.0017,"nx":28,"ny":28,"refTime":"2024-06-30T09:00:00:Z","depth":0,"parameterNumber":3,"parameterNumberName":"V-component_of_WINDS"},"data":[0,0,0,0,0,0,0,0,0,0,0,0,0,0,0,0,0,0,0,0,0,0,0,0,0,0,0,0,0,0,0,0,0,0,0,0,0,0,0,0,0,0,0,0,0,0,0,0,0,0,0,0,0,0,0,0,0,0,-1.6705,-1.6706,0,-1.6817,-1.6818,-1.6819,-1.6849,-1.6849,-1.6848,-1.6847,-1.6965,-1.6968,-1.6972,0,0,0,0,0,0,0,0,0,0,0,0,0,-1.6521,-1.6524,-1.6705,-1.6706,-1.6708,-1.6816,-1.6818,-1.682,-1.685,-1.6849,-1.6848,-1.6847,-1.6963,-1.6968,-1.6972,0,0,0,0,0,0,0,0,0,0,0,0,0,-1.6613,-1.6525,-1.6705,-1.6736,-1.674,-1.6816,-1.6818,-1.682,-1.685,-1.6849,-1.6848,-1.6847,-1.6962,-1.6967,-1.6973,-1.7027,0,0,-1.699,-1.6993,0,0,0,0,0,0,0,0,-1.6608,-1.662,-1.673,-1.6734,-1.6738,-1.6818,-1.6796,-1.689,-1.685,-1.6808,-1.6847,-1.6846,-1.6917,-1.6926,-1.6949,-1.7033,-1.7038,-1.6991,-1.6994,-1.6996,-1.6998,0,0,0,0,0,0,0,-1.6602,-1.6615,-1.6749,-1.6731,-1.6737,-1.6745,-1.6757,-1.6814,-1.6867,-1.6812,-1.6814,-1.6827,-1.6919,-1.6944,-1.6952,-1.704,-1.699,-1.6995,-1.6999,-1.7001,-1.7174,-1.7176,0,0,0,0,0,0,-1.6589,-1.661,-1.6746,-1.6753,-1.6669,-1.6749,-1.6763,-1.6793,-1.6866,-1.6876,-1.6827,-1.6828,-1.6935,-1.6946,-1.6957,-1.7026,-1.6996,-1.7002,-1.7005,-1.7173,-1.7175,-1.7176,0,0,0,0,0,0,-1.6585,-1.6601,-1.6741,-1.6682,-1.67,-1.6753,-1.6788,-1.6796,-1.6821,-1.6878,-1.6888,-1.6843,-1.6934,-1.6949,-1.701,-1.703,-1.7004,-1.7009,-1.7172,-1.7174,-1.7175,-1.7164,0,0,0,0,0,0,-1.658,-1.66,-1.662,-1.6682,-1.6703,-1.6792,-1.6789,-1.6799,-1.683,-1.6832,-1.6895,-1.6905,-1.6935,-1.7001,-1.7015,-1.7038,-1.7014,-1.717,-1.7173,-1.7175,-1.7163,-1.7166,-1.7168,0,0,0,0,0,-1.6573,-1.6613,-1.6621,-1.6637,-1.673,-1.6793,-1.6805,-1.6838,-1.6832,-1.6854,-1.689,-1.6903,-1.7025,-1.7007,-1.7023,-1.7048,-1.7169,-1.7172,-1.7175,-1.7162,-1.7165,-1.7168,0,0,0,0,0,0,-1.6554,-1.6622,-1.6631,-1.6693,-1.6736,-1.6798,-1.6826,-1.684,-1.6887,-1.6886,-1.6926,-1.694,-1.6998,-1.7029,-1.7007,-1.7104,-1.7097,-1.7104,-1.7082,-1.7086,-1.7088,-1.708,-1.7018,0,0,0,0,0,-1.6556,-1.66,-1.6658,-1.6706,-1.6728,-1.6773,-1.6801,-1.6822,-1.687,-1.6889,-1.693,-1.6977,-1.7026,-1.7057,-1.7106,-1.7167,-1.7182,-1.7192,-1.7194,-1.7196,-1.7201,-1.7237,-1.7242,-1.7185,-1.7185,-1.7185,0,0,-1.6563,-1.6605,-1.6631,-1.6703,-1.674,-1.6786,-1.6788,-1.6837,-1.6871,-1.6897,-1.6957,-1.6988,-1.7043,-1.7104,-1.7134,-1.7132,-1.722,-1.7199,-1.72,-1.7205,-1.724,-1.7246,-1.7251,-1.7187,-1.7187,-1.7186,0,0,-1.6598,-1.6634,-1.6678,-1.6715,-1.6769,-1.6799,-1.6809,-1.6869,-1.689,-1.6951,-1.6971,-1.7013,-1.7096,-1.7135,-1.7165,-1.7213,-1.7227,-1.7228,-1.7241,-1.7275,-1.7279,-1.7284,-1.7302,-1.7308,-1.7233,-1.7233,-1.7233,0,-1.6599,-1.6668,-1.67,-1.6747,-1.6779,-1.6802,-1.6848,-1.6882,-1.695,-1.6972,-1.6969,-1.7074,-1.7112,-1.7183,-1.7195,-1.7218,-1.7233,-1.7222,-1.7276,-1.7281,-1.7285,-1.7303,-1.731,-1.7233,-1.7233,-1.7233,-1.7233,0,-1.6667,-1.6714,-1.6744,-1.6808,-1.6843,-1.6889,-1.6929,-1.6961,-1.6978,-1.7009,-1.707,-1.7117,-1.7175,-1.7193,-1.7212,-1.7267,-1.7265,-1.7268,-1.7262,-1.729,-1.7307,-1.7314,-1.7232,-1.7232,-1.7232,-1.7232,0,0,-1.6695,-1.6775,-1.6785,-1.6815,-1.6876,-1.6914,-1.6962,-1.7017,-1.7044,-1.709,-1.7132,-1.7201,-1.7205,-1.7239,-1.7262,-1.7292,-1.7328,-1.7292,-1.7294,-1.7298,-1.7394,-1.7392,-1.7399,-1.7337,-1.7339,-1.734,-1.739,0,-1.6738,-1.6823,-1.6853,-1.6924,-1.6968,-1.6991,-1.7032,-1.7075,-1.7104,-1.7147,-1.718,-1.7229,-1.7229,-1.725,-1.7281,-1.7317,-1.7348,-1.7314,-1.7378,-1.738,-1.7365,-1.7408,-1.7407,-1.7452,-1.7397,-1.7398,-1.7399,0,-1.6801,-1.6847,-1.6921,-1.6977,-1.6997,-1.7034,-1.7087,-1.7128,-1.7177,-1.7196,-1.7234,-1.7254,-1.7306,-1.7295,-1.7368,-1.7344,-1.7371,-1.7393,-1.7396,-1.7404,-1.7392,-1.7419,-1.7467,-1.7474,-1.741,-1.7409,-1.7408,0,-1.6815,-1.6895,-1.695,-1.6974,-1.7041,-1.7066,-1.7095,-1.7143,-1.7175,-1.7222,-1.7243,-1.7296,-1.7325,-1.7366,-1.74,-1.7389,-1.747,-1.7462,-1.7489,-1.7488,-1.7506,-1.7505,-1.756,-1.7521,-1.7521,-1.7521,-1.7521,0,-1.6862,-1.6907,-1.6957,-1.6991,-1.7042,-1.7076,-1.7127,-1.7157,-1.72,-1.7241,-1.7263,-1.7302,-1.7344,-1.7388,-1.7416,-1.7472,-1.7485,-1.7503,-1.751,-1.7502,-1.7499,-1.7522,-1.752,-1.7523,-1.7522,-1.7522,-1.7522,0,-1.6887,-1.6922,-1.6984,-1.7041,-1.7056,-1.7092,-1.7141,-1.7176,-1.7205,-1.7257,-1.7271,-1.7318,-1.7372,-1.7409,-1.7478,-1.7496,-1.7557,-1.7564,-1.7541,-1.7544,-1.7569,-1.7567,-1.7642,-1.7654,-1.7605,-1.7606,-1.7606,0,-1.6915,-1.695,-1.7011,-1.7039,-1.7068,-1.7113,-1.7146,-1.718,-1.7213,-1.7271,-1.7299,-1.7353,-1.7398,-1.7482,-1.7523,-1.7576,-1.7585,-1.7607,-1.7593,-1.7584,-1.7587,-1.7585,-1.7589,-1.761,-1.761,-1.761,-1.7611,0,-1.6962,-1.6977,-1.7022,-1.7073,-1.711,-1.7152,-1.7195,-1.7217,-1.7259,-1.7295,-1.7349,-1.7384,-1.7453,-1.7507,-1.7564,-1.7595,-1.7611,-1.7614,-1.7624,-1.7617,-1.7602,-1.7612,-1.7548,-1.7613,-1.7613,-1.7613,-1.7613,-1.7612,-1.6991,-1.7023,-1.707,-1.7119,-1.7154,-1.7193,-1.7228,-1.7262,-1.7307,-1.7365,-1.7383,-1.7439,-1.7488,-1.7565,-1.7597,-1.7642,-1.7641,-1.7654,-1.7658,-1.7661,-1.7661,-1.7593,-1.7652,-1.7652,-1.7652,-1.7652,-1.7652,0,-1.704,-1.7071,-1.7115,-1.7173,-1.7212,-1.7221,-1.7268,-1.7301,-1.7349,-1.7393,-1.7436,-1.7499,-1.7551,-1.7595,-1.765,-1.7678,-1.7686,-1.7691,-1.769,-1.7697,-1.7658,-1.7646,-1.7683,-1.7683,-1.7683,-1.7683,-1.7683,-1.7683,-1.707,-1.7125,-1.7146,-1.7219,-1.725,-1.7305,-1.7331,-1.7367,-1.7402,-1.747,-1.7513,-1.7541,-1.7585,-1.7643,-1.7692,-1.7704,-1.7724,-1.7727,-1.7741,-1.7704,-1.77,-1.7697,-1.7685,-1.773,-1.773,-1.7776,-1.7777,-1.7777]}]]